TimePST,TemperatureF,Dew PointF,Humidity,Sea Level PressureIn,VisibilityMPH,Wind Direction,Wind SpeedMPH,Gust SpeedMPH,PrecipitationIn,Events,Conditions,WindDirDegrees,DateUTC
12:53 AM,33.1,33.1,100,30.16,0.2,Calm,Calm,-,N/A,Fog,Fog,0,2013-01-22 08:53:00
1:45 AM,33.8,33.8,100,30.13,0.5,Calm,Calm,-,N/A,Fog,Fog,0,2013-01-22 09:45:00
1:53 AM,33.1,33.1,100,30.17,0.5,Calm,Calm,-,N/A,Fog,Fog,0,2013-01-22 09:53:00
2:11 AM,33.8,32.0,93,30.14,0.2,South,3.5,-,N/A,Fog,Fog,170,2013-01-22 10:11:00
2:21 AM,33.8,32.0,93,30.14,0.2,Calm,Calm,-,N/A,Fog,Fog,0,2013-01-22 10:21:00
2:34 AM,32.0,32.0,100,30.13,0.2,Calm,Calm,-,N/A,Fog,Fog,0,2013-01-22 10:34:00
2:53 AM,32.0,32.0,100,30.16,0.2,Calm,Calm,-,N/A,Fog,Fog,0,2013-01-22 10:53:00
3:53 AM,32.0,32.0,100,30.13,0.2,Calm,Calm,-,N/A,Fog,Fog,0,2013-01-22 11:53:00
4:22 AM,32.0,32.0,100,30.12,0.2,Calm,Calm,-,N/A,Fog,Fog,0,2013-01-22 12:22:00
4:36 AM,32.0,30.2,93,30.11,0.2,Calm,Calm,-,N/A,Fog,Fog,0,2013-01-22 12:36:00
4:53 AM,30.9,30.9,100,30.14,0.2,Calm,Calm,-,N/A,Fog,Light Freezing Fog,0,2013-01-22 12:53:00
5:19 AM,30.2,30.2,100,30.11,0.2,NNE,3.5,-,N/A,Fog,Light Freezing Fog,30,2013-01-22 13:19:00
5:30 AM,30.2,30.2,100,30.10,0.2,Calm,Calm,-,N/A,Fog,Light Freezing Fog,0,2013-01-22 13:30:00
5:53 AM,30.9,30.0,96,30.13,0.2,ENE,3.5,-,N/A,Fog,Light Freezing Fog,60,2013-01-22 13:53:00
6:05 AM,30.2,30.2,100,30.10,0.5,Calm,Calm,-,N/A,Fog,Light Freezing Fog,0,2013-01-22 14:05:00
6:27 AM,30.2,30.2,100,30.10,0.2,Calm,Calm,-,N/A,Fog,Light Freezing Fog,0,2013-01-22 14:27:00
6:35 AM,30.2,30.2,100,30.09,0.5,Calm,Calm,-,N/A,Fog,Light Freezing Fog,0,2013-01-22 14:35:00
6:53 AM,30.0,30.0,100,30.12,0.5,Calm,Calm,-,N/A,Fog,Light Freezing Fog,0,2013-01-22 14:53:00
7:10 AM,30.2,30.2,100,30.09,0.2,Calm,Calm,-,N/A,Fog,Light Freezing Fog,0,2013-01-22 15:10:00
7:53 AM,30.0,30.0,100,30.12,0.2,Calm,Calm,-,N/A,Fog,Light Freezing Fog,0,2013-01-22 15:53:00
8:45 AM,30.2,28.4,93,30.08,0.2,Calm,Calm,-,N/A,Fog,Light Freezing Fog,0,2013-01-22 16:45:00
8:53 AM,30.0,28.9,96,30.11,0.2,Calm,Calm,-,N/A,Fog,Light Freezing Fog,0,2013-01-22 16:53:00
9:13 AM,30.2,28.4,93,30.08,0.2,Calm,Calm,-,N/A,Fog,Light Freezing Fog,0,2013-01-22 17:13:00
9:25 AM,30.2,30.2,100,30.08,0.2,Calm,Calm,-,N/A,Fog,Light Freezing Fog,0,2013-01-22 17:25:00
9:53 AM,30.0,30.0,100,30.12,0.2,Calm,Calm,-,N/A,Fog,Light Freezing Fog,0,2013-01-22 17:53:00
10:03 AM,30.2,30.2,100,30.08,0.2,Calm,Calm,-,N/A,Fog,Light Freezing Fog,0,2013-01-22 18:03:00
10:31 AM,30.2,30.2,100,30.08,0.2,Calm,Calm,-,N/A,Fog,Light Freezing Fog,0,2013-01-22 18:31:00
10:41 AM,30.2,30.2,100,30.08,0.2,Calm,Calm,-,N/A,Fog,Light Freezing Fog,0,2013-01-22 18:41:00
10:53 AM,30.9,30.9,100,30.11,0.8,Calm,Calm,-,N/A,,Overcast,0,2013-01-22 18:53:00
11:53 AM,32.0,32.0,100,30.10,0.8,Calm,Calm,-,N/A,,Overcast,0,2013-01-22 19:53:00
12:35 PM,33.8,33.8,100,30.05,0.2,Calm,Calm,-,N/A,Fog,Fog,0,2013-01-22 20:35:00
12:50 PM,33.8,33.8,100,30.05,1.0,Calm,Calm,-,N/A,,Overcast,0,2013-01-22 20:50:00
12:53 PM,34.0,34.0,100,30.07,1.8,Calm,Calm,-,N/A,,Overcast,0,2013-01-22 20:53:00
1:21 PM,35.6,33.8,93,30.03,2.0,Calm,Calm,-,N/A,,Mostly Cloudy,0,2013-01-22 21:21:00
1:35 PM,35.6,33.8,93,30.02,4.0,Calm,Calm,-,N/A,,Mostly Cloudy,0,2013-01-22 21:35:00
1:45 PM,35.6,33.8,93,30.01,6.0,NE,3.5,-,N/A,,Scattered Clouds,50,2013-01-22 21:45:00
1:53 PM,35.1,34.0,96,30.04,6.0,Calm,Calm,-,N/A,,Partly Cloudy,0,2013-01-22 21:53:00
2:53 PM,37.0,35.1,93,30.02,10.0,Calm,Calm,-,N/A,,Clear,0,2013-01-22 22:53:00
3:53 PM,37.0,35.1,93,30.00,8.0,Calm,Calm,-,N/A,,Clear,0,2013-01-22 23:53:00
4:53 PM,35.1,33.1,92,30.01,6.0,North,3.5,-,N/A,,Clear,10,2013-01-23 00:53:00
5:53 PM,35.1,34.0,96,29.98,8.0,ENE,3.5,-,N/A,,Clear,60,2013-01-23 01:53:00
6:53 PM,33.1,32.0,96,29.96,5.0,NNE,4.6,-,N/A,,Clear,20,2013-01-23 02:53:00
7:53 PM,34.0,33.1,96,29.96,5.0,Calm,Calm,-,N/A,,Clear,0,2013-01-23 03:53:00
8:53 PM,33.1,32.0,96,29.97,4.0,Calm,Calm,-,N/A,,Clear,0,2013-01-23 04:53:00
9:53 PM,34.0,32.0,92,29.96,5.0,Calm,Calm,-,N/A,,Mostly Cloudy,0,2013-01-23 05:53:00
10:53 PM,33.8,33.8,100,29.91,5.0,NNE,4.6,-,N/A,,Overcast,20,2013-01-23 06:53:00
11:53 PM,34.0,33.1,96,29.96,6.0,Calm,Calm,-,N/A,,Overcast,0,2013-01-23 07:53:00